| time (UTC) | temp F | wind direction | speed MPH | gust MPH | rain 1hr in | rain 24hr in | rain mn in | humidity % | barometer mb |
| 20260906104607 | 71 | 55 | 1.0 | 2.0 | 0.00 | 0.00 | 0.00 | 91 | 1099.5 |
| 20260906104101 | 71 | 53 | 1.0 | 2.0 | 0.00 | 0.00 | 0.00 | 91 | 1099.4 |
| 20260906103600 | 71 | 52 | 1.0 | 2.0 | 0.00 | 0.00 | 0.00 | 90 | 1099.3 |
| 20260906103055 | 71 | 45 | 1.0 | 2.0 | 0.00 | 0.00 | 0.00 | 90 | 1099.4 |
| 20260906102555 | 70 | 45 | 1.0 | 2.0 | 0.00 | 0.00 | 0.00 | 91 | 1099.4 |
| 20260906102050 | 70 | 45 | 1.0 | 2.0 | 0.00 | 0.00 | 0.00 | 92 | 1099.3 |
| 20260906101545 | 71 | 45 | 2.0 | 2.0 | 0.00 | 0.00 | 0.00 | 91 | 1099.5 |
| 20260906101040 | 71 | 45 | 1.0 | 1.0 | 0.00 | 0.00 | 0.00 | 91 | 1099.3 |
| 20260906100535 | 72 | 45 | 0.0 | 0.0 | 0.00 | 0.00 | 0.00 | 87 | 1099.6 |
| 20260906100030 | 72 | 68 | 1.0 | 2.0 | 0.00 | 0.00 | 0.00 | 86 | 1099.6 |
| 20260906095524 | 71 | 95 | 0.0 | 2.0 | 0.00 | 0.00 | 0.00 | 88 | 1099.5 |
| 20260906095020 | 72 | 97 | 1.0 | 1.0 | 0.00 | 0.00 | 0.00 | 89 | 1099.5 |
| 20260906094519 | 74 | 100 | 2.0 | 2.0 | 0.00 | 0.00 | 0.00 | 85 | 1099.4 |
| 20260906094015 | 74 | 40 | 0.0 | 1.0 | 0.00 | 0.00 | 0.00 | 81 | 1099.5 |
| 20260906093511 | 74 | 42 | 2.0 | 2.0 | 0.00 | 0.00 | 0.00 | 82 | 1099.3 |
| 20260906093011 | 74 | 36 | 1.0 | 2.0 | 0.00 | 0.00 | 0.00 | 83 | 1099.4 |
| 20260906092511 | 73 | 38 | 2.0 | 2.0 | 0.00 | 0.00 | 0.00 | 84 | 1099.4 |
| 20260906092007 | 72 | 49 | 0.0 | 1.0 | 0.00 | 0.00 | 0.00 | 86 | 1099.5 |
| 20260906091502 | 71 | 49 | 0.0 | 0.0 | 0.00 | 0.00 | 0.00 | 87 | 1099.4 |
| 20260906090959 | 71 | 47 | 1.0 | 2.0 | 0.00 | 0.00 | 0.00 | 91 | 1099.5 |
| 20260906090459 | 71 | 40 | 0.0 | 1.0 | 0.00 | 0.00 | 0.00 | 90 | 1099.3 |
| 20260906085959 | 72 | 49 | 0.0 | 1.0 | 0.00 | 0.00 | 0.00 | 89 | 1099.6 |
| 20260906085458 | 74 | 60 | 1.0 | 1.0 | 0.00 | 0.00 | 0.00 | 86 | 1099.5 |
| 20260906084957 | 75 | 60 | 0.0 | 0.0 | 0.00 | 0.00 | 0.00 | 81 | 1099.2 |
| 20260906084452 | 76 | 60 | 0.0 | 1.0 | 0.00 | 0.00 | 0.00 | 79 | 1099.4 |
| 20260906083951 | 75 | 60 | 1.0 | 1.0 | 0.00 | 0.00 | 0.00 | 78 | 1099.4 |
| 20260906083447 | 75 | 60 | 0.0 | 1.0 | 0.00 | 0.00 | 0.00 | 81 | 1099.2 |
| 20260906082946 | 75 | 60 | 0.0 | 0.0 | 0.00 | 0.00 | 0.00 | 81 | 1099.3 |
| 20260906082441 | 74 | 60 | 0.0 | 0.0 | 0.00 | 0.00 | 0.00 | 82 | 1099.2 |
| 20260906081937 | 74 | 60 | 0.0 | 0.0 | 0.00 | 0.00 | 0.00 | 83 | 1099.2 |
| 20260906081432 | 73 | 60 | 0.0 | 0.0 | 0.00 | 0.00 | 0.00 | 84 | 1099.3 |
| 20260906080929 | 73 | 60 | 0.0 | 0.0 | 0.00 | 0.00 | 0.00 | 84 | 1099.2 |
| 20260906080425 | 73 | 60 | 0.0 | 1.0 | 0.00 | 0.00 | 0.00 | 83 | 1099.3 |
| 20260906075924 | 73 | 60 | 1.0 | 1.0 | 0.00 | 0.00 | 0.00 | 86 | 1099.0 |
| 20260906075420 | 74 | 60 | 1.0 | 1.0 | 0.00 | 0.00 | 0.00 | 84 | 1099.2 |
| 20260906074915 | 73 | 60 | 0.0 | 0.0 | 0.00 | 0.00 | 0.00 | 81 | 1099.3 |
| 20260906074414 | 73 | 59 | 0.0 | 0.0 | 0.00 | 0.00 | 0.00 | 85 | 1099.2 |
| 20260906073913 | 73 | 59 | 0.0 | 0.0 | 0.00 | 0.00 | 0.00 | 86 | 1099.1 |
| 20260906073408 | 73 | 59 | 0.0 | 0.0 | 0.00 | 0.00 | 0.00 | 86 | 1099.2 |
| 20260906072905 | 73 | 59 | 0.0 | 1.0 | 0.00 | 0.00 | 0.00 | 87 | 1099.2 |
| 20260906072400 | 74 | 59 | 1.0 | 2.0 | 0.00 | 0.00 | 0.00 | 85 | 1099.0 |
| 20260906071856 | 73 | 59 | 0.0 | 0.0 | 0.00 | 0.00 | 0.00 | 85 | 1099.2 |
| 20260906071351 | 73 | 59 | 0.0 | 1.0 | 0.00 | 0.00 | 0.00 | 86 | 1099.3 |
| 20260906070847 | 73 | 59 | 0.0 | 1.0 | 0.00 | 0.00 | 0.00 | 87 | 1099.3 |
| 20260906070343 | 73 | 59 | 1.0 | 1.0 | 0.00 | 0.00 | 0.00 | 88 | 1099.4 |
| 20260906065838 | 73 | 63 | 1.0 | 1.0 | 0.00 | 0.00 | 0.00 | 87 | 1099.4 |
| 20260906065332 | 74 | 54 | 2.0 | 2.0 | 0.00 | 0.00 | 0.00 | 85 | 1099.4 |
| 20260906064829 | 75 | 43 | 1.0 | 1.0 | 0.00 | 0.00 | 0.00 | 82 | 1099.3 |
| 20260906064325 | 75 | 43 | 0.0 | 0.0 | 0.00 | 0.00 | 0.00 | 81 | 1099.4 |
| 20260906063824 | 75 | 43 | 0.0 | 0.0 | 0.00 | 0.00 | 0.00 | 80 | 1099.4 |
| 20260906063320 | 74 | 43 | 0.0 | 0.0 | 0.00 | 0.00 | 0.00 | 80 | 1099.4 |
| 20260906062815 | 74 | 43 | 0.0 | 0.0 | 0.00 | 0.00 | 0.00 | 80 | 1099.5 |
| 20260906062314 | 74 | 43 | 1.0 | 1.0 | 0.00 | 0.00 | 0.00 | 81 | 1099.6 |
| 20260906061810 | 75 | 43 | 1.0 | 1.0 | 0.00 | 0.00 | 0.00 | 80 | 1099.6 |
| 20260906061306 | 76 | 43 | 1.0 | 1.0 | 0.00 | 0.00 | 0.00 | 76 | 1099.7 |
| 20260906060801 | 76 | 43 | 0.0 | 0.0 | 0.00 | 0.00 | 0.00 | 74 | 1099.7 |
| 20260906060259 | 76 | 43 | 0.0 | 1.0 | 0.00 | 0.00 | 0.00 | 74 | 1099.6 |
| 20260906055754 | 76 | 55 | 1.0 | 1.0 | 0.00 | 0.00 | 0.00 | 74 | 1099.9 |
| 20260906055249 | 75 | 103 | 0.0 | 0.0 | 0.00 | 0.00 | 0.00 | 76 | 1100.0 |
| 20260906054744 | 75 | 103 | 0.0 | 0.0 | 0.00 | 0.00 | 0.00 | 78 | 1100.1 |
| 20260906054240 | 76 | 103 | 0.0 | 0.0 | 0.00 | 0.00 | 0.00 | 77 | 1100.1 |
| 20260906053736 | 76 | 108 | 1.0 | 1.0 | 0.00 | 0.00 | 0.00 | 77 | 1100.0 |
| 20260906053232 | 75 | 30 | 1.0 | 1.0 | 0.00 | 0.00 | 0.00 | 79 | 1100.1 |
| 20260906052727 | 75 | 30 | 0.0 | 2.0 | 0.00 | 0.00 | 0.00 | 80 | 1100.2 |
| 20260906052223 | 74 | 30 | 1.0 | 2.0 | 0.00 | 0.00 | 0.00 | 82 | 1100.4 |
| 20260906051720 | 73 | 75 | 0.0 | 0.0 | 0.00 | 0.00 | 0.00 | 88 | 1100.4 |
| 20260906051219 | 73 | 75 | 0.0 | 1.0 | 0.00 | 0.00 | 0.00 | 89 | 1100.4 |
| 20260906050714 | 73 | 75 | 0.0 | 0.0 | 0.00 | 0.00 | 0.00 | 89 | 1100.5 |
| 20260906050210 | 73 | 75 | 0.0 | 0.0 | 0.00 | 0.00 | 0.00 | 90 | 1100.6 |
| 20260906045708 | 73 | 19 | 0.0 | 0.0 | 0.00 | 0.00 | 0.00 | 93 | 1100.5 |
| 20260906045203 | 73 | 19 | 0.0 | 0.0 | 0.00 | 0.00 | 0.00 | 94 | 1100.5 |
| 20260906044659 | 73 | 19 | 0.0 | 1.0 | 0.00 | 0.00 | 0.00 | 94 | 1100.4 |
| 20260906044154 | 73 | 19 | 1.0 | 1.0 | 0.00 | 0.00 | 0.00 | 94 | 1100.4 |
| 20260906043650 | 72 | 19 | 1.0 | 2.0 | 0.00 | 0.00 | 0.00 | 94 | 1100.7 |
| 20260906043145 | 72 | 23 | 2.0 | 2.0 | 0.00 | 0.00 | 0.00 | 93 | 1100.6 |
| 20260906042645 | 72 | 108 | 1.0 | 1.0 | 0.00 | 0.00 | 0.00 | 93 | 1100.9 |
| 20260906042139 | 73 | 98 | 0.0 | 2.0 | 0.00 | 0.00 | 0.00 | 93 | 1100.7 |
| 20260906041635 | 74 | 22 | 0.0 | 0.0 | 0.00 | 0.00 | 0.00 | 90 | 1100.8 |
| 20260906041129 | 74 | 21 | 1.0 | 1.0 | 0.00 | 0.00 | 0.00 | 91 | 1100.7 |
| 20260906040626 | 74 | 21 | 1.0 | 2.0 | 0.00 | 0.00 | 0.00 | 91 | 1100.6 |
| 20260906040121 | 74 | 14 | 2.0 | 3.0 | 0.00 | 0.05 | 0.05 | 90 | 1100.6 |
| 20260906035616 | 73 | 54 | 0.0 | 1.0 | 0.00 | 0.05 | 0.05 | 91 | 1100.6 |
| 20260906035112 | 73 | 54 | 0.0 | 0.0 | 0.00 | 0.05 | 0.05 | 92 | 1100.6 |
| 20260906034611 | 73 | 54 | 0.0 | 0.0 | 0.00 | 0.05 | 0.05 | 92 | 1100.4 |
| 20260906034106 | 73 | 54 | 0.0 | 2.0 | 0.00 | 0.05 | 0.05 | 91 | 1100.4 |
| 20260906033602 | 73 | 58 | 0.0 | 0.0 | 0.00 | 0.05 | 0.05 | 93 | 1100.5 |
| 20260906033057 | 73 | 58 | 0.0 | 1.0 | 0.00 | 0.05 | 0.05 | 93 | 1100.6 |
| 20260906032554 | 73 | 58 | 0.0 | 0.0 | 0.00 | 0.05 | 0.05 | 94 | 1100.6 |
| 20260906032053 | 73 | 58 | 0.0 | 1.0 | 0.00 | 0.05 | 0.05 | 93 | 1100.4 |
| 20260906031549 | 73 | 59 | 0.0 | 2.0 | 0.00 | 0.05 | 0.05 | 93 | 1100.4 |
| 20260906031044 | 76 | 117 | 3.0 | 5.0 | 0.00 | 0.05 | 0.05 | 87 | 1100.4 |
| 20260906030543 | 77 | 91 | 1.0 | 1.0 | 0.00 | 0.05 | 0.05 | 82 | 1100.3 |
| 20260906030044 | 76 | 58 | 1.0 | 1.0 | 0.00 | 0.05 | 0.05 | 84 | 1100.4 |
| 20260906025544 | 75 | 58 | 1.0 | 1.0 | 0.00 | 0.05 | 0.05 | 87 | 1100.5 |
| 20260906025042 | 75 | 58 | 0.0 | 0.0 | 0.00 | 0.05 | 0.05 | 87 | 1100.3 |
| 20260906024538 | 75 | 58 | 0.0 | 1.0 | 0.00 | 0.05 | 0.05 | 87 | 1100.5 |
| 20260906024037 | 75 | 58 | 0.0 | 1.0 | 0.00 | 0.05 | 0.05 | 88 | 1100.4 |
| 20260906023533 | 75 | 58 | 1.0 | 1.0 | 0.00 | 0.05 | 0.05 | 89 | 1100.5 |
| 20260906023028 | 75 | 58 | 1.0 | 1.0 | 0.00 | 0.05 | 0.05 | 89 | 1100.6 |
| 20260906022523 | 75 | 58 | 0.0 | 1.0 | 0.00 | 0.05 | 0.05 | 89 | 1100.3 |
| 20260906022019 | 75 | 58 | 0.0 | 1.0 | 0.00 | 0.05 | 0.05 | 89 | 1100.4 |
| 20260906021514 | 75 | 58 | 0.0 | 2.0 | 0.00 | 0.05 | 0.05 | 90 | 1100.3 |
| 20260906021008 | 75 | 56 | 1.0 | 2.0 | 0.00 | 0.05 | 0.05 | 90 | 1100.4 |
| 20260906020508 | 75 | 49 | 1.0 | 1.0 | 0.00 | 0.05 | 0.05 | 89 | 1100.5 |
| 20260906020008 | 75 | 58 | 1.0 | 2.0 | 0.00 | 0.05 | 0.05 | 90 | 1100.6 |
| 20260906015506 | 75 | 54 | 2.0 | 2.0 | 0.00 | 0.05 | 0.05 | 89 | 1100.4 |
| 20260906015001 | 75 | 58 | 1.0 | 1.0 | 0.00 | 0.05 | 0.05 | 88 | 1100.5 |
| 20260906014501 | 76 | 58 | 1.0 | 1.0 | 0.00 | 0.05 | 0.05 | 88 | 1100.4 |
| 20260906013957 | 76 | 58 | 1.0 | 2.0 | 0.00 | 0.05 | 0.05 | 87 | 1100.2 |
| 20260906013452 | 76 | 58 | 2.0 | 2.0 | 0.00 | 0.05 | 0.05 | 87 | 1100.0 |
| 20260906012949 | 76 | 57 | 1.0 | 1.0 | 0.00 | 0.05 | 0.05 | 88 | 1099.9 |
| 20260906012448 | 77 | 58 | 1.0 | 2.0 | 0.00 | 0.05 | 0.05 | 86 | 1099.7 |
| 20260906011948 | 76 | 57 | 2.0 | 2.0 | 0.00 | 0.05 | 0.05 | 86 | 1099.5 |
| 20260906011443 | 76 | 60 | 2.0 | 3.0 | 0.00 | 0.05 | 0.05 | 88 | 1099.3 |
| 20260906010938 | 77 | 57 | 0.0 | 2.0 | 0.00 | 0.05 | 0.05 | 87 | 1099.5 |
| 20260906010434 | 76 | 67 | 3.0 | 3.0 | 0.00 | 0.05 | 0.05 | 89 | 1099.4 |
| 20260906005930 | 75 | 60 | 1.0 | 5.0 | 0.00 | 0.05 | 0.05 | 89 | 1099.4 |
| 20260906005430 | 74 | 56 | 3.0 | 3.0 | 0.00 | 0.05 | 0.05 | 95 | 1099.4 |
| 20260906004928 | 74 | 97 | 2.0 | 3.0 | 0.00 | 0.05 | 0.05 | 96 | 1099.2 |
| 20260906004422 | 75 | 58 | 1.0 | 2.0 | 0.00 | 0.05 | 0.05 | 93 | 1099.2 |
| 20260906003918 | 76 | 57 | 3.0 | 3.0 | 0.00 | 0.05 | 0.05 | 86 | 1099.0 |
| 20260906003413 | 76 | 227 | 0.0 | 0.0 | 0.00 | 0.05 | 0.05 | 88 | 1098.8 |
| 20260906002908 | 76 | 227 | 0.0 | 0.0 | 0.00 | 0.05 | 0.05 | 87 | 1098.8 |
| 20260906002408 | 76 | 227 | 0.0 | 0.0 | 0.00 | 0.05 | 0.05 | 88 | 1098.8 |
| 20260906001904 | 76 | 227 | 0.0 | 0.0 | 0.00 | 0.05 | 0.05 | 88 | 1098.9 |
| 20260906001359 | 76 | 227 | 0.0 | 1.0 | 0.00 | 0.05 | 0.05 | 88 | 1099.1 |
| 20260906000859 | 76 | 227 | 1.0 | 1.0 | 0.00 | 0.05 | 0.05 | 87 | 1099.0 |
| 20260906000400 | 77 | 24 | 1.0 | 2.0 | 0.00 | 0.05 | 0.05 | 86 | 1099.1 |
| 20260905235855 | 78 | 47 | 0.0 | 1.0 | 0.00 | 0.05 | 0.05 | 83 | 1098.9 |
| 20260905235349 | 79 | 51 | 0.0 | 1.0 | 0.00 | 0.05 | 0.05 | 80 | 1099.1 |
| 20260905234844 | 79 | 52 | 0.0 | 1.0 | 0.00 | 0.05 | 0.05 | 77 | 1099.1 |
| 20260905234339 | 79 | 52 | 1.0 | 1.0 | 0.00 | 0.05 | 0.05 | 79 | 1099.1 |
| 20260905233834 | 78 | 52 | 0.0 | 1.0 | 0.00 | 0.05 | 0.05 | 81 | 1099.1 |
| 20260905233329 | 77 | 57 | 1.0 | 1.0 | 0.00 | 0.05 | 0.05 | 87 | 1099.2 |
| 20260905232828 | 77 | 57 | 0.0 | 1.0 | 0.00 | 0.05 | 0.05 | 88 | 1099.2 |
| 20260905232325 | 77 | 57 | 0.0 | 1.0 | 0.00 | 0.05 | 0.05 | 88 | 1099.3 |
| 20260905231820 | 76 | 57 | 0.0 | 1.0 | 0.00 | 0.05 | 0.05 | 89 | 1099.3 |
| 20260905231315 | 76 | 57 | 0.0 | 1.0 | 0.00 | 0.05 | 0.05 | 90 | 1099.1 |
| 20260905230812 | 76 | 57 | 1.0 | 1.0 | 0.00 | 0.05 | 0.05 | 89 | 1099.3 |
| 20260905230309 | 76 | 57 | 0.0 | 1.0 | 0.00 | 0.05 | 0.05 | 87 | 1099.4 |
| 20260905225809 | 77 | 57 | 2.0 | 2.0 | 0.00 | 0.05 | 0.05 | 88 | 1099.4 |
| 20260905225306 | 77 | 52 | 1.0 | 1.0 | 0.00 | 0.05 | 0.05 | 87 | 1099.2 |
| 20260905224804 | 77 | 50 | 1.0 | 1.0 | 0.00 | 0.05 | 0.05 | 87 | 1099.3 |
| 20260905224259 | 78 | 54 | 0.0 | 1.0 | 0.00 | 0.05 | 0.05 | 85 | 1099.2 |
| 20260905223755 | 78 | 56 | 1.0 | 3.0 | 0.00 | 0.05 | 0.05 | 85 | 1099.4 |
| 20260905223252 | 78 | 58 | 2.0 | 3.0 | 0.00 | 0.05 | 0.05 | 85 | 1099.4 |
| 20260905222747 | 77 | 55 | 0.0 | 1.0 | 0.00 | 0.05 | 0.05 | 84 | 1099.4 |
| 20260905222246 | 74 | 54 | 0.0 | 0.0 | 0.00 | 0.05 | 0.05 | 91 | 1099.5 |
| 20260905221742 | 76 | 56 | 1.0 | 1.0 | 0.00 | 0.05 | 0.05 | 89 | 1099.4 |
| 20260905221239 | 77 | 35 | 0.0 | 1.0 | 0.00 | 0.05 | 0.05 | 86 | 1099.3 |
| 20260905220734 | 77 | 35 | 1.0 | 1.0 | 0.00 | 0.05 | 0.05 | 86 | 1099.2 |
| 20260905220230 | 77 | 34 | 1.0 | 1.0 | 0.00 | 0.05 | 0.05 | 85 | 1099.1 |
| 20260905215729 | 77 | 34 | 0.0 | 0.0 | 0.00 | 0.05 | 0.05 | 87 | 1099.0 |
| 20260905215226 | 77 | 34 | 0.0 | 1.0 | 0.00 | 0.05 | 0.05 | 88 | 1099.1 |
| 20260905214721 | 76 | 34 | 1.0 | 2.0 | 0.00 | 0.05 | 0.05 | 88 | 1099.0 |
| 20260905214216 | 76 | 44 | 0.0 | 0.0 | 0.00 | 0.05 | 0.05 | 89 | 1099.0 |
| 20260905213712 | 76 | 44 | 0.0 | 1.0 | 0.00 | 0.05 | 0.05 | 89 | 1099.0 |
| 20260905213208 | 76 | 44 | 0.0 | 1.0 | 0.00 | 0.05 | 0.05 | 90 | 1099.1 |
| 20260905212703 | 75 | 42 | 0.0 | 2.0 | 0.00 | 0.05 | 0.05 | 91 | 1099.2 |
| 20260905212202 | 76 | 17 | 0.0 | 2.0 | 0.00 | 0.05 | 0.05 | 89 | 1099.5 |
| 20260905211656 | 72 | 32 | 2.0 | 2.0 | 0.00 | 0.05 | 0.05 | 90 | 1099.9 |
| 20260905211152 | 72 | 40 | 0.0 | 1.0 | 0.00 | 0.05 | 0.05 | 87 | 1100.0 |
| 20260905210649 | 71 | 42 | 1.0 | 1.0 | 0.07 | 0.05 | 0.05 | 89 | 1099.6 |
| 20260905210148 | 71 | 43 | 2.0 | 2.0 | 0.24 | 0.05 | 0.05 | 89 | 1099.9 |
| 20260905205647 | 75 | 49 | 2.0 | 3.0 | 0.24 | 0.04 | 0.04 | 88 | 1100.0 |
| 20260905205141 | 79 | 44 | 1.0 | 5.0 | 0.07 | 0.01 | 0.01 | 86 | 1100.0 |
| 20260905204640 | 85 | 53 | 1.0 | 2.0 | 0.00 | 0.00 | 0.00 | 80 | 1100.0 |
| 20260905204137 | 88 | 55 | 1.0 | 2.0 | 0.00 | 0.00 | 0.00 | 65 | 1099.9 |
| 20260905203636 | 89 | 359 | 1.0 | 1.0 | 0.00 | 0.00 | 0.00 | 60 | 1099.5 |
| 20260905203132 | 90 | 359 | 0.0 | 1.0 | 0.00 | 0.00 | 0.00 | 59 | 1099.3 |
| 20260905202627 | 90 | 359 | 0.0 | 0.0 | 0.00 | 0.00 | 0.00 | 59 | 1099.5 |
| 20260905202123 | 90 | 359 | 0.0 | 0.0 | 0.00 | 0.00 | 0.00 | 59 | 1099.6 |
| 20260905201618 | 91 | 359 | 0.0 | 1.0 | 0.00 | 0.00 | 0.00 | 59 | 1099.6 |
| 20260905201118 | 92 | 359 | 0.0 | 1.0 | 0.00 | 0.00 | 0.00 | 58 | 1099.7 |
| 20260905200614 | 93 | 359 | 0.0 | 1.0 | 0.00 | 0.00 | 0.00 | 56 | 1099.9 |
| 20260905200109 | 94 | 359 | 0.0 | 1.0 | 0.00 | 0.00 | 0.00 | 55 | 1099.9 |
| 20260905195601 | 93 | 359 | 1.0 | 2.0 | 0.00 | 0.00 | 0.00 | 54 | 1099.7 |
| 20260905195057 | 93 | 358 | 1.0 | 3.0 | 0.00 | 0.00 | 0.00 | 56 | 1099.7 |
| 20260905194557 | 95 | 2 | 2.0 | 2.0 | 0.00 | 0.00 | 0.00 | 52 | 1099.6 |
| 20260905194056 | 93 | 329 | 3.0 | 3.0 | 0.00 | 0.00 | 0.00 | 54 | 1099.7 |
| 20260905193551 | 95 | 352 | 2.0 | 2.0 | 0.00 | 0.00 | 0.00 | 49 | 1099.9 |
| 20260905193046 | 96 | 33 | 2.0 | 2.0 | 0.00 | 0.00 | 0.00 | 47 | 1100.0 |
| 20260905192542 | 95 | 35 | 2.0 | 2.0 | 0.00 | 0.00 | 0.00 | 47 | 1100.3 |
| 20260905192038 | 95 | 40 | 0.0 | 1.0 | 0.00 | 0.00 | 0.00 | 48 | 1100.2 |
| 20260905191536 | 95 | 39 | 2.0 | 2.0 | 0.00 | 0.00 | 0.00 | 50 | 1100.2 |
| 20260905191035 | 93 | 63 | 0.0 | 1.0 | 0.00 | 0.00 | 0.00 | 50 | 1100.4 |
| 20260905190534 | 90 | 21 | 1.0 | 1.0 | 0.00 | 0.00 | 0.00 | 53 | 1100.4 |
| 20260905190034 | 93 | 21 | 1.0 | 2.0 | 0.00 | 0.00 | 0.00 | 52 | 1100.4 |
| 20260905185533 | 92 | 19 | 2.0 | 2.0 | 0.00 | 0.00 | 0.00 | 53 | 1100.3 |
| 20260905185033 | 91 | 61 | 1.0 | 2.0 | 0.00 | 0.00 | 0.00 | 58 | 1100.3 |
| 20260905184527 | 91 | 358 | 1.0 | 2.0 | 0.00 | 0.00 | 0.00 | 53 | 1100.2 |
| 20260905184026 | 89 | 15 | 1.0 | 3.0 | 0.00 | 0.00 | 0.00 | 57 | 1100.4 |
| 20260905183526 | 88 | 2 | 1.0 | 2.0 | 0.00 | 0.00 | 0.00 | 59 | 1100.3 |
| 20260905183021 | 89 | 355 | 2.0 | 2.0 | 0.00 | 0.00 | 0.00 | 58 | 1100.4 |
| 20260905182521 | 90 | 356 | 1.0 | 2.0 | 0.00 | 0.00 | 0.00 | 58 | 1100.6 |
| 20260905182021 | 89 | 2 | 1.0 | 2.0 | 0.00 | 0.00 | 0.00 | 57 | 1100.4 |
| 20260905181516 | 89 | 45 | 1.0 | 1.0 | 0.00 | 0.00 | 0.00 | 58 | 1100.7 |
| 20260905181015 | 91 | 335 | 2.0 | 3.0 | 0.00 | 0.00 | 0.00 | 57 | 1100.9 |
| 20260905180510 | 90 | 10 | 1.0 | 2.0 | 0.00 | 0.00 | 0.00 | 52 | 1101.0 |
| 20260905180005 | 92 | 10 | 1.0 | 1.0 | 0.00 | 0.00 | 0.00 | 52 | 1100.9 |
| 20260905175504 | 91 | 10 | 2.0 | 2.0 | 0.00 | 0.00 | 0.00 | 52 | 1100.9 |
| 20260905175000 | 91 | 10 | 1.0 | 2.0 | 0.00 | 0.00 | 0.00 | 52 | 1100.8 |
| 20260905174455 | 89 | 10 | 1.0 | 2.0 | 0.00 | 0.00 | 0.00 | 56 | 1100.9 |
| 20260905173951 | 90 | 10 | 0.0 | 1.0 | 0.00 | 0.00 | 0.00 | 56 | 1101.0 |
| 20260905173447 | 90 | 10 | 1.0 | 2.0 | 0.00 | 0.00 | 0.00 | 54 | 1101.1 |
| 20260905172942 | 87 | 10 | 1.0 | 2.0 | 0.00 | 0.00 | 0.00 | 58 | 1101.2 |
| 20260905172440 | 86 | 10 | 1.0 | 3.0 | 0.00 | 0.00 | 0.00 | 59 | 1101.2 |
| 20260905171936 | 86 | 26 | 1.0 | 2.0 | 0.00 | 0.00 | 0.00 | 61 | 1101.4 |
| 20260905171432 | 85 | 26 | 1.0 | 2.0 | 0.00 | 0.00 | 0.00 | 62 | 1101.4 |
| 20260905170928 | 86 | 26 | 1.0 | 2.0 | 0.00 | 0.00 | 0.00 | 63 | 1101.2 |
| 20260905170424 | 84 | 27 | 1.0 | 2.0 | 0.00 | 0.00 | 0.00 | 63 | 1101.4 |
| 20260905165924 | 85 | 26 | 2.0 | 2.0 | 0.00 | 0.00 | 0.00 | 64 | 1101.4 |
| 20260905165419 | 85 | 15 | 2.0 | 2.0 | 0.00 | 0.00 | 0.00 | 63 | 1101.0 |
| 20260905164914 | 84 | 355 | 1.0 | 2.0 | 0.00 | 0.00 | 0.00 | 65 | 1101.6 |
| 20260905164408 | 87 | 353 | 1.0 | 3.0 | 0.00 | 0.00 | 0.00 | 64 | 1101.6 |
| 20260905163903 | 84 | 31 | 0.0 | 2.0 | 0.00 | 0.00 | 0.00 | 65 | 1101.6 |
| 20260905163401 | 85 | 16 | 1.0 | 2.0 | 0.00 | 0.00 | 0.00 | 64 | 1101.6 |
| 20260905162856 | 85 | 22 | 1.0 | 2.0 | 0.00 | 0.00 | 0.00 | 63 | 1101.7 |
| 20260905162355 | 87 | 21 | 1.0 | 1.0 | 0.00 | 0.00 | 0.00 | 61 | 1101.5 |
| 20260905161850 | 87 | 22 | 1.0 | 1.0 | 0.00 | 0.00 | 0.00 | 59 | 1101.9 |
| 20260905161350 | 87 | 22 | 0.0 | 1.0 | 0.00 | 0.00 | 0.00 | 61 | 1102.1 |
| 20260905160848 | 88 | 22 | 0.0 | 1.0 | 0.00 | 0.00 | 0.00 | 58 | 1102.0 |
| 20260905160343 | 86 | 22 | 0.0 | 1.0 | 0.00 | 0.00 | 0.00 | 60 | 1101.9 |
| 20260905155837 | 85 | 21 | 1.0 | 3.0 | 0.00 | 0.00 | 0.00 | 68 | 1101.9 |
| 20260905155337 | 87 | 28 | 0.0 | 2.0 | 0.00 | 0.00 | 0.00 | 65 | 1101.9 |
| 20260905154836 | 87 | 31 | 0.0 | 1.0 | 0.00 | 0.00 | 0.00 | 61 | 1102.0 |
| 20260905154332 | 85 | 31 | 0.0 | 1.0 | 0.00 | 0.00 | 0.00 | 65 | 1102.1 |
| 20260905153827 | 83 | 31 | 0.0 | 1.0 | 0.00 | 0.00 | 0.00 | 68 | 1102.3 |
| 20260905153324 | 82 | 19 | 0.0 | 2.0 | 0.00 | 0.00 | 0.00 | 68 | 1102.3 |
| 20260905152823 | 83 | 338 | 1.0 | 3.0 | 0.00 | 0.00 | 0.00 | 67 | 1102.1 |
| 20260905152322 | 83 | 16 | 0.0 | 1.0 | 0.00 | 0.00 | 0.00 | 67 | 1102.4 |
| 20260905151818 | 82 | 16 | 0.0 | 0.0 | 0.00 | 0.00 | 0.00 | 67 | 1102.1 |
| 20260905151313 | 80 | 15 | 1.0 | 1.0 | 0.00 | 0.00 | 0.00 | 71 | 1102.2 |
| 20260905150813 | 82 | 351 | 2.0 | 2.0 | 0.00 | 0.00 | 0.00 | 70 | 1102.2 |
| 20260905150313 | 80 | 351 | 0.0 | 2.0 | 0.00 | 0.00 | 0.00 | 73 | 1102.1 |
| 20260905145811 | 80 | 36 | 0.0 | 2.0 | 0.00 | 0.00 | 0.00 | 73 | 1102.2 |
| 20260905145310 | 81 | 356 | 0.0 | 3.0 | 0.00 | 0.00 | 0.00 | 73 | 1102.3 |
| 20260905144809 | 81 | 54 | 0.0 | 0.0 | 0.00 | 0.00 | 0.00 | 73 | 1102.3 |
| 20260905144305 | 80 | 54 | 0.0 | 0.0 | 0.00 | 0.00 | 0.00 | 73 | 1102.3 |
| 20260905143804 | 78 | 54 | 0.0 | 0.0 | 0.00 | 0.00 | 0.00 | 77 | 1102.2 |
| 20260905143258 | 78 | 53 | 0.0 | 0.0 | 0.00 | 0.00 | 0.00 | 78 | 1102.4 |
| 20260905142757 | 78 | 53 | 0.0 | 0.0 | 0.00 | 0.00 | 0.00 | 80 | 1102.5 |
| 20260905142251 | 77 | 53 | 0.0 | 0.0 | 0.00 | 0.00 | 0.00 | 81 | 1102.4 |
| 20260905141748 | 80 | 53 | 0.0 | 0.0 | 0.00 | 0.00 | 0.00 | 81 | 1102.3 |
| 20260905141244 | 80 | 53 | 0.0 | 0.0 | 0.00 | 0.00 | 0.00 | 80 | 1102.4 |
| 20260905140739 | 80 | 53 | 0.0 | 0.0 | 0.00 | 0.00 | 0.00 | 81 | 1102.3 |
| 20260905140239 | 80 | 53 | 0.0 | 0.0 | 0.00 | 0.00 | 0.00 | 81 | 1102.5 |
| 20260905135737 | 79 | 53 | 0.0 | 0.0 | 0.00 | 0.00 | 0.00 | 80 | 1102.4 |
| 20260905135234 | 79 | 53 | 0.0 | 0.0 | 0.00 | 0.00 | 0.00 | 81 | 1102.4 |
| 20260905134733 | 78 | 53 | 0.0 | 0.0 | 0.00 | 0.00 | 0.00 | 81 | 1102.5 |
| 20260905134233 | 79 | 53 | 0.0 | 0.0 | 0.00 | 0.00 | 0.00 | 80 | 1102.4 |
| 20260905133728 | 78 | 53 | 0.0 | 0.0 | 0.00 | 0.00 | 0.00 | 80 | 1102.3 |
| 20260905133223 | 78 | 53 | 0.0 | 0.0 | 0.00 | 0.00 | 0.00 | 81 | 1102.5 |
| 20260905132722 | 78 | 53 | 0.0 | 0.0 | 0.00 | 0.00 | 0.00 | 81 | 1102.6 |
| 20260905132218 | 78 | 53 | 0.0 | 0.0 | 0.00 | 0.00 | 0.00 | 82 | 1102.6 |
| 20260905131712 | 77 | 53 | 0.0 | 0.0 | 0.00 | 0.00 | 0.00 | 82 | 1102.5 |
| 20260905131208 | 77 | 53 | 0.0 | 0.0 | 0.00 | 0.00 | 0.00 | 82 | 1102.6 |
| 20260905130702 | 77 | 53 | 0.0 | 0.0 | 0.00 | 0.00 | 0.00 | 82 | 1102.5 |
| 20260905130201 | 77 | 53 | 0.0 | 1.0 | 0.00 | 0.00 | 0.00 | 82 | 1102.6 |
| 20260905125655 | 76 | 53 | 0.0 | 0.0 | 0.00 | 0.00 | 0.00 | 83 | 1102.6 |
| 20260905125151 | 76 | 53 | 0.0 | 1.0 | 0.00 | 0.00 | 0.00 | 83 | 1102.6 |
| 20260905124648 | 76 | 53 | 1.0 | 1.0 | 0.00 | 0.00 | 0.00 | 83 | 1102.5 |
| 20260905124144 | 76 | 53 | 1.0 | 1.0 | 0.00 | 0.00 | 0.00 | 84 | 1102.6 |
| 20260905123638 | 76 | 53 | 1.0 | 1.0 | 0.00 | 0.00 | 0.00 | 84 | 1102.5 |
| 20260905123136 | 76 | 53 | 1.0 | 1.0 | 0.00 | 0.00 | 0.00 | 83 | 1102.4 |
| 20260905122635 | 78 | 53 | 1.0 | 2.0 | 0.00 | 0.00 | 0.00 | 83 | 1102.4 |
| 20260905122130 | 78 | 53 | 0.0 | 0.0 | 0.00 | 0.00 | 0.00 | 78 | 1102.2 |
| 20260905121625 | 77 | 53 | 0.0 | 0.0 | 0.00 | 0.00 | 0.00 | 78 | 1102.4 |
| 20260905121120 | 77 | 53 | 0.0 | 0.0 | 0.00 | 0.00 | 0.00 | 80 | 1102.5 |
| 20260905120619 | 77 | 53 | 0.0 | 0.0 | 0.00 | 0.00 | 0.00 | 79 | 1102.2 |
| 20260905120114 | 77 | 53 | 0.0 | 0.0 | 0.00 | 0.00 | 0.00 | 80 | 1102.2 |
| 20260905115613 | 76 | 53 | 0.0 | 0.0 | 0.00 | 0.00 | 0.00 | 81 | 1102.1 |
| 20260905115108 | 77 | 53 | 0.0 | 1.0 | 0.00 | 0.00 | 0.00 | 82 | 1102.2 |
| 20260905114608 | 76 | 53 | 0.0 | 1.0 | 0.00 | 0.00 | 0.00 | 80 | 1102.3 |
| 20260905114107 | 75 | 53 | 0.0 | 1.0 | 0.00 | 0.00 | 0.00 | 83 | 1102.1 |
| 20260905113602 | 75 | 53 | 1.0 | 2.0 | 0.00 | 0.00 | 0.00 | 84 | 1102.0 |
| 20260905113057 | 76 | 54 | 1.0 | 2.0 | 0.00 | 0.00 | 0.00 | 82 | 1102.0 |
| 20260905112552 | 77 | 59 | 0.0 | 1.0 | 0.00 | 0.00 | 0.00 | 79 | 1101.9 |
| 20260905112048 | 77 | 59 | 0.0 | 0.0 | 0.00 | 0.00 | 0.00 | 79 | 1101.9 |
| 20260905111543 | 77 | 59 | 0.0 | 0.0 | 0.00 | 0.00 | 0.00 | 80 | 1101.6 |
| 20260905111042 | 76 | 59 | 0.0 | 0.0 | 0.00 | 0.00 | 0.00 | 80 | 1101.6 |
| 20260905110541 | 75 | 59 | 0.0 | 1.0 | 0.00 | 0.00 | 0.00 | 82 | 1101.6 |
| 20260905110036 | 74 | 59 | 1.0 | 2.0 | 0.00 | 0.00 | 0.00 | 86 | 1101.6 |
| 20260905105536 | 74 | 53 | 1.0 | 2.0 | 0.00 | 0.00 | 0.00 | 87 | 1101.4 |
| 20260905105036 | 77 | 52 | 2.0 | 2.0 | 0.00 | 0.00 | 0.00 | 83 | 1101.5 |